Change the Weather History Date:

Sunday, November 3, 2013

  Actual Average Record
Temperature  
Mean Temperature 51 °F 58 °F  
Max Temperature 62 °F 68 °F 83 °F (2012)
Min Temperature 39 °F 48 °F 20 °F (1951)
Degree Days  
Heating Degree Days 14 8  
Month to date heating degree days 30 23  
Since 1 July heating degree days 143 154  
Cooling Degree Days 0 1  
Month to date cooling degree days 0 3  
Year to date cooling degree days 2237 2246  
Moisture  
Dew Point 37 °F    
Average Humidity 65    
Maximum Humidity 92    
Minimum Humidity 37    
Precipitation  
Precipitation 0.00 in 0.15 in 3.16 in (1936)
Month to date precipitation T 0.45  
Year to date precipitation 51.94 42.90  
Snow  
Snow 0.00 in 0.00 in T in (1970)
Month to date snowfall 0.0 0.0  
Since 1 July snowfall 0.0 0.0  
Since 1 September snowfall 0.0 0.0  
Snow Depth 0.00 in    
Sea Level Pressure  
Sea Level Pressure 30.24 in    
Wind  
Wind Speed 3 mph (ESE)    
Max Wind Speed 12 mph    
Max Gust Speed 15 mph    
Visibility 10 miles    
Events      
T = Trace of Precipitation, MM = Missing Value Source: NWS Daily Summary

Daily Weather History Graph

Daily Weather History Graph

Search for Another Location

Airport or City:

Trip Planner

Search our weather history database for the weather conditions in past years. The results will help you decide how hot, cold, wet, or windy it might be!

Date:

Astronomy

Nov. 03, 2013 Rise Set
Actual Time 6:23 AM CST 5:03 PM CST
Civil Twilight 5:56 AM CST 5:29 PM CST
Nautical Twilight 5:26 AM CST 5:59 PM CST
Astronomical Twilight 4:57 AM CST 6:29 PM CST
Moon 6:26 AM CST (11/3) 5:19 PM CST (11/3)
Length of Visible Light 11h 32m
Length of Day
10h 40m
New Moon, 0% of the Moon is Illuminated
Nov 3
New Moon
Nov 9
First Quarter
Nov 17
Full
Nov 25
Last Quarter
Dec 2
New

Hourly Weather History & Observations

Time (CST) Temp. Dew Point Humidity Pressure Visibility Wind Dir Wind Speed Gust Speed Precip Events Conditions
12:54 AM 44.1 °F 39.0 °F 82% 30.21 in 10.0 mi Calm Calm - N/A   Clear
1:54 AM 43.0 °F 39.0 °F 86% 30.22 in 10.0 mi Calm Calm - N/A   Clear
1:54 AM 42.1 °F 37.9 °F 85% 30.21 in 10.0 mi Calm Calm - N/A   Clear
2:54 AM 41.0 °F 37.9 °F 89% 30.22 in 10.0 mi Calm Calm - N/A   Clear
3:54 AM 39.9 °F 37.9 °F 93% 30.24 in 10.0 mi Calm Calm - N/A   Clear
4:54 AM 41.0 °F 37.9 °F 89% 30.26 in 10.0 mi Calm Calm - N/A   Clear
5:54 AM 39.9 °F 37.0 °F 89% 30.28 in 10.0 mi Calm Calm - N/A   Clear
6:54 AM 39.9 °F 37.9 °F 93% 30.29 in 10.0 mi Calm Calm - N/A   Clear
7:54 AM 46.0 °F 41.0 °F 83% 30.31 in 10.0 mi Calm Calm - N/A   Clear
8:54 AM 52.0 °F 41.0 °F 66% 30.31 in 10.0 mi East 4.6 mph - N/A   Clear
9:54 AM 55.0 °F 37.0 °F 51% 30.31 in 10.0 mi ESE 10.4 mph - N/A   Clear
10:54 AM 57.0 °F 36.0 °F 45% 30.31 in 10.0 mi East 8.1 mph - N/A   Partly Cloudy
11:54 AM 59.0 °F 34.0 °F 39% 30.27 in 10.0 mi NE 9.2 mph - N/A   Clear
12:54 PM 60.1 °F 35.1 °F 39% 30.24 in 10.0 mi East 9.2 mph - N/A   Clear
1:54 PM 60.1 °F 35.1 °F 39% 30.22 in 10.0 mi Calm Calm - N/A   Clear
2:54 PM 61.0 °F 36.0 °F 39% 30.20 in 10.0 mi ESE 6.9 mph - N/A   Partly Cloudy
3:54 PM 61.0 °F 35.1 °F 38% 30.17 in 10.0 mi East 10.4 mph - N/A   Partly Cloudy
4:54 PM 59.0 °F 35.1 °F 41% 30.18 in 10.0 mi SE 6.9 mph - N/A   Partly Cloudy
5:54 PM 57.0 °F 36.0 °F 45% 30.20 in 10.0 mi Calm Calm - N/A   Partly Cloudy
6:54 PM 54.0 °F 37.0 °F 53% 30.20 in 10.0 mi SSE 4.6 mph - N/A   Partly Cloudy
7:54 PM 52.0 °F 37.9 °F 59% 30.22 in 10.0 mi Calm Calm - N/A   Partly Cloudy
8:54 PM 51.1 °F 39.0 °F 63% 30.22 in 10.0 mi Calm Calm - N/A   Partly Cloudy
9:54 PM 50.0 °F 39.9 °F 68% 30.22 in 10.0 mi East 3.5 mph - N/A   Scattered Clouds
10:54 PM 50.0 °F 39.0 °F 66% 30.21 in 10.0 mi SE 4.6 mph - N/A   Scattered Clouds